User: anonymous   Login
Location: SAPM � Hemmingford
(45.0500°N, 73.5833°W)
Time: 18:06:02
(UTC-05:00)
Language:

Cosmos 1603 - Orbit

View from above orbital plane
View from above orbital plane
View from above satellite
View from above satellite

Ground track
Ground track

The orbit data is extracted from the following two-line orbital elements,

1 15333U 84106A   14352.23649828  .00000261  00000-0  16202-3 0  1547
2 15333 071.0243 201.8501 0018973 160.7024 328.1376 14.13963636559358
Epoch (UTC): 18 December 2014 05:40:33
Eccentricity: 0.0018973
inclination: 71.0243°
perigee height: 832 km
apogee height: 859 km
right ascension of ascending node: 201.8501°
argument of perigee: 160.7024°
revolutions per day: 14.13963636
mean anomaly at epoch: 328.1376°
orbit number at epoch: 55935

The dashed part of the orbit path shows where the satellite is in the earth's shadow,  

DLR